TimeCST,TemperatureF,Dew PointF,Humidity,Sea Level PressureIn,VisibilityMPH,Wind Direction,Wind SpeedMPH,Gust SpeedMPH,PrecipitationIn,Events,Conditions,WindDirDegrees,DateUTC
12:13 AM,19.4,15.8,86,30.01,2.5,NW,12.7,26.5,N/A,Snow,Light Snow,320,2012-11-23 06:13:00
12:33 AM,19.4,14.0,80,30.02,2.5,NW,18.4,26.5,N/A,Snow,Light Snow,320,2012-11-23 06:33:00
12:53 AM,19.4,12.2,74,30.03,4.0,NW,16.1,23.0,N/A,Snow,Light Snow,310,2012-11-23 06:53:00
1:13 AM,19.4,12.2,74,30.04,7.0,NW,17.3,23.0,N/A,Snow,Light Snow,320,2012-11-23 07:13:00
1:53 AM,19.4,12.2,74,30.07,5.0,NW,15.0,28.8,N/A,Snow,Light Snow,320,2012-11-23 07:53:00
2:13 AM,17.6,12.2,79,30.08,7.0,NW,16.1,25.3,N/A,Snow,Light Snow,320,2012-11-23 08:13:00
2:33 AM,17.6,12.2,79,30.09,7.0,NW,13.8,27.6,N/A,Snow,Light Snow,310,2012-11-23 08:33:00
2:53 AM,17.6,12.2,79,30.11,4.0,NW,17.3,23.0,N/A,Snow,Light Snow,310,2012-11-23 08:53:00
3:12 AM,17.6,12.2,79,30.13,5.0,NW,15.0,21.9,N/A,Snow,Light Snow,310,2012-11-23 09:12:00
3:33 AM,17.6,10.4,73,30.13,5.0,NW,12.7,25.3,N/A,Snow,Light Snow,320,2012-11-23 09:33:00
3:52 AM,17.6,10.4,73,30.13,7.0,NW,17.3,26.5,N/A,Snow,Light Snow,310,2012-11-23 09:52:00
4:13 AM,17.6,10.4,73,30.14,10.0,NW,18.4,26.5,N/A,Snow,Light Snow,320,2012-11-23 10:13:00
4:32 AM,17.6,10.4,73,30.16,7.0,NNW,16.1,20.7,N/A,Snow,Light Snow,330,2012-11-23 10:32:00
4:53 AM,15.8,10.4,79,30.17,10.0,NW,15.0,21.9,N/A,Snow,Light Snow,320,2012-11-23 10:53:00
5:13 AM,15.8,10.4,79,30.19,7.0,NW,11.5,21.9,N/A,Snow,Light Snow,320,2012-11-23 11:13:00
5:33 AM,17.6,10.4,73,30.20,10.0,NW,11.5,25.3,N/A,Snow,Light Snow,320,2012-11-23 11:33:00
5:53 AM,17.6,10.4,73,30.21,10.0,NW,15.0,26.5,N/A,Snow,Light Snow,320,2012-11-23 11:53:00
6:13 AM,17.6,12.2,79,30.22,7.0,NW,12.7,23.0,N/A,Snow,Light Snow,320,2012-11-23 12:13:00
6:33 AM,17.6,12.2,79,30.23,10.0,NW,11.5,16.1,N/A,Snow,Light Snow,320,2012-11-23 12:33:00
7:13 AM,17.6,12.2,79,30.24,7.0,NW,11.5,21.9,N/A,Snow,Light Snow,310,2012-11-23 13:13:00
7:33 AM,17.6,12.2,79,30.25,10.0,NW,12.7,21.9,N/A,Snow,Light Snow,320,2012-11-23 13:33:00
7:53 AM,17.6,12.2,79,30.26,7.0,NW,10.4,21.9,N/A,Snow,Light Snow,320,2012-11-23 13:53:00
8:13 AM,17.6,12.2,79,30.27,7.0,NNW,17.3,23.0,N/A,Snow,Light Snow,330,2012-11-23 14:13:00
8:33 AM,17.6,12.2,79,30.28,7.0,NNW,12.7,25.3,N/A,Snow,Light Snow,330,2012-11-23 14:33:00
8:53 AM,17.6,12.2,79,30.29,7.0,NNW,12.7,19.6,N/A,Snow,Light Snow,330,2012-11-23 14:53:00
9:12 AM,17.6,12.2,79,30.29,5.0,NW,13.8,21.9,N/A,Snow,Light Snow,320,2012-11-23 15:12:00
9:33 AM,17.6,12.2,79,30.30,7.0,NW,13.8,21.9,N/A,Snow,Light Snow,320,2012-11-23 15:33:00
9:52 AM,17.6,12.2,79,30.31,10.0,NW,10.4,20.7,N/A,Snow,Light Snow,310,2012-11-23 15:52:00
10:13 AM,17.6,10.4,73,30.32,10.0,NW,13.8,19.6,N/A,Snow,Light Snow,310,2012-11-23 16:13:00
10:33 AM,19.4,10.4,68,30.32,10.0,NW,13.8,21.9,N/A,Snow,Light Snow,320,2012-11-23 16:33:00
10:53 AM,19.4,10.4,68,30.33,10.0,NW,12.7,19.6,N/A,,Overcast,310,2012-11-23 16:53:00
11:13 AM,19.4,10.4,68,30.34,10.0,NW,13.8,21.9,N/A,Snow,Light Snow,310,2012-11-23 17:13:00
11:33 AM,19.4,10.4,68,30.34,7.0,NNW,16.1,21.9,N/A,Snow,Light Snow,330,2012-11-23 17:33:00
11:53 AM,19.4,12.2,74,30.34,7.0,NW,12.7,18.4,N/A,Snow,Light Snow,310,2012-11-23 17:53:00
12:13 PM,19.4,10.4,68,30.34,10.0,NNW,16.1,20.7,N/A,Snow,Light Snow,330,2012-11-23 18:13:00
12:33 PM,19.4,12.2,74,30.34,7.0,NW,11.5,18.4,N/A,Snow,Light Snow,310,2012-11-23 18:33:00
12:52 PM,19.4,12.2,74,30.34,10.0,NW,8.1,19.6,N/A,Snow,Light Snow,310,2012-11-23 18:52:00
1:12 PM,19.4,10.4,68,30.34,10.0,NW,13.8,17.3,N/A,,Overcast,320,2012-11-23 19:12:00
1:32 PM,19.4,10.4,68,30.33,10.0,NNW,13.8,20.7,N/A,,Mostly Cloudy,330,2012-11-23 19:32:00
1:53 PM,19.4,10.4,68,30.33,10.0,NW,11.5,16.1,N/A,,Scattered Clouds,310,2012-11-23 19:53:00
2:13 PM,21.2,10.4,63,30.33,10.0,NW,9.2,-,N/A,,Scattered Clouds,310,2012-11-23 20:13:00
2:33 PM,21.2,10.4,63,30.33,10.0,NNW,8.1,-,N/A,,Clear,330,2012-11-23 20:33:00
2:53 PM,21.2,10.4,63,30.34,10.0,NW,8.1,-,N/A,,Scattered Clouds,320,2012-11-23 20:53:00
3:12 PM,21.2,10.4,63,30.34,10.0,NW,9.2,17.3,N/A,,Mostly Cloudy,310,2012-11-23 21:12:00
3:33 PM,19.4,10.4,68,30.35,10.0,WNW,11.5,17.3,N/A,,Mostly Cloudy,300,2012-11-23 21:33:00
3:53 PM,19.4,10.4,68,30.36,10.0,NW,10.4,17.3,N/A,,Scattered Clouds,310,2012-11-23 21:53:00
4:12 PM,17.6,10.4,73,30.37,10.0,NW,9.2,-,N/A,,Scattered Clouds,320,2012-11-23 22:12:00
4:32 PM,17.6,10.4,73,30.37,10.0,WNW,8.1,-,N/A,,Scattered Clouds,300,2012-11-23 22:32:00
4:53 PM,17.6,10.4,73,30.37,10.0,NW,9.2,-,N/A,,Scattered Clouds,320,2012-11-23 22:53:00
5:12 PM,15.8,8.6,73,30.37,10.0,NW,6.9,-,N/A,,Clear,320,2012-11-23 23:12:00
5:33 PM,15.8,8.6,73,30.37,10.0,NW,8.1,-,N/A,,Scattered Clouds,320,2012-11-23 23:33:00
5:52 PM,15.8,8.6,73,30.37,10.0,NW,6.9,-,N/A,,Clear,320,2012-11-23 23:52:00
6:33 PM,14.0,8.6,79,30.37,10.0,NW,5.8,-,N/A,,Clear,310,2012-11-24 00:33:00
6:53 PM,14.0,8.6,79,30.37,10.0,NW,9.2,-,N/A,,Clear,320,2012-11-24 00:53:00
7:12 PM,12.2,8.6,85,30.37,10.0,NW,6.9,-,N/A,,Clear,310,2012-11-24 01:12:00
7:32 PM,12.2,8.6,85,30.37,10.0,NW,6.9,-,N/A,,Clear,310,2012-11-24 01:32:00
7:53 PM,12.2,8.6,85,30.37,10.0,WNW,4.6,-,N/A,,Scattered Clouds,300,2012-11-24 01:53:00
8:13 PM,12.2,8.6,85,30.37,10.0,NW,9.2,-,N/A,,Mostly Cloudy,320,2012-11-24 02:13:00
8:33 PM,12.2,8.6,85,30.37,10.0,WNW,4.6,-,N/A,,Overcast,300,2012-11-24 02:33:00
8:52 PM,12.2,8.6,85,30.37,10.0,WNW,5.8,-,N/A,Snow,Light Snow,300,2012-11-24 02:52:00
9:13 PM,12.2,8.6,85,30.36,10.0,NW,6.9,-,N/A,,Overcast,310,2012-11-24 03:13:00
9:33 PM,12.2,8.6,85,30.36,10.0,NW,8.1,-,N/A,Snow,Light Snow,320,2012-11-24 03:33:00
9:53 PM,12.2,8.6,85,30.37,10.0,NW,8.1,-,N/A,Snow,Light Snow,320,2012-11-24 03:53:00
10:12 PM,12.2,6.8,79,30.36,10.0,NW,8.1,-,N/A,Snow,Light Snow,320,2012-11-24 04:12:00
10:33 PM,12.2,8.6,85,30.35,10.0,NNW,5.8,-,N/A,Snow,Light Snow,340,2012-11-24 04:33:00
10:52 PM,12.2,8.6,85,30.35,10.0,NNW,8.1,-,N/A,Snow,Light Snow,330,2012-11-24 04:52:00
11:12 PM,12.2,8.6,85,30.34,10.0,NNW,3.5,-,N/A,Snow,Light Snow,340,2012-11-24 05:12:00
11:32 PM,12.2,8.6,85,30.34,10.0,NNW,4.6,-,N/A,Snow,Light Snow,330,2012-11-24 05:32:00
11:52 PM,12.2,8.6,85,30.34,10.0,NNW,5.8,-,N/A,Snow,Light Snow,340,2012-11-24 05:52:00